FW8987 Weather Reports


time (UTC)temp
F
wind
direction
speed
knots
gust
knots
rain 1hr
in
rain 24hr
in
rain mn
in
humidity
%
barometer
mb
20260508141023 63 209 2.6 7.8 0.00 0.00 0.00 32 1024.4
20260508140019 63 200 1.7 7.0 0.00 0.00 0.00 33 1024.4
20260508135054 61 195 3.5 7.8 0.00 0.00 0.00 33 1024.3
20260508134030 62 192 2.6 5.2 0.00 0.00 0.00 33 1024.5
20260508133025 63 202 3.5 7.8 0.00 0.00 0.00 33 1024.5
20260508132020 63 199 2.6 5.2 0.00 0.00 0.00 32 1024.6
20260508131035 62 196 3.5 7.8 0.00 0.00 0.00 32 1024.7
20260508130030 64 177 1.7 5.2 0.00 0.00 0.00 31 1024.6
20260508125105 63 173 2.6 6.1 0.00 0.00 0.00 32 1024.8
20260508124020 63 185 2.6 5.2 0.00 0.00 0.00 31 1024.8
20260508123016 63 204 3.5 9.6 0.00 0.00 0.00 31 1024.9
20260508122032 63 196 2.6 5.2 0.00 0.00 0.00 33 1024.8
20260508121027 61 206 2.6 7.0 0.00 0.00 0.00 33 1025.0
20260508120022 62 203 3.5 6.1 0.00 0.00 0.00 33 1024.9
20260508115037 62 181 2.6 7.0 0.00 0.00 0.00 33 1025.0
20260508114053 61 194 2.6 5.2 0.00 0.00 0.00 33 1024.9
20260508113027 61 177 2.6 7.0 0.00 0.00 0.00 33 1025.1
20260508112042 62 177 2.6 7.8 0.00 0.00 0.00 34 1025.1
20260508111018 61 173 1.7 5.2 0.00 0.00 0.00 33 1025.3
20260508110034 62 215 3.5 7.0 0.00 0.00 0.00 31 1025.2
20260508105029 61 182 3.5 8.7 0.00 0.00 0.00 31 1025.3
20260508104024 61 162 2.6 6.1 0.00 0.00 0.00 30 1025.3
20260508103140 60 198 2.6 7.0 0.00 0.00 0.00 32 1025.3
20260508102034 60 212 2.6 7.0 0.00 0.00 0.00 32 1025.4
20260508101110 59 205 3.5 7.8 0.00 0.00 0.00 32 1025.5
20260508100026 59 212 3.5 7.8 0.00 0.00 0.00 32 1025.5
20260508095041 58 214 3.5 7.0 0.00 0.00 0.00 32 1025.6
20260508094036 60 179 1.7 3.5 0.00 0.00 0.00 31 1025.7
20260508093032 59 203 2.6 7.0 0.00 0.00 0.00 31 1025.7
20260508092046 59 193 2.6 6.1 0.00 0.00 0.00 31 1025.8
20260508091021 58 190 1.7 6.1 0.00 0.00 0.00 29 1025.8
20260508090037 57 190 3.5 7.0 0.00 0.00 0.00 28 1025.7
20260508085112 56 198 3.5 8.7 0.00 0.00 0.00 29 1025.8
20260508084028 57 202 2.6 5.2 0.00 0.00 0.00 29 1025.9
20260508083023 56 187 2.6 5.2 0.00 0.00 0.00 29 1025.9
20260508082038 56 189 3.5 7.0 0.00 0.00 0.00 29 1025.9
20260508081034 55 209 2.6 6.1 0.00 0.00 0.00 30 1026.0
20260508080030 55 198 1.7 3.5 0.00 0.00 0.00 33 1025.9
20260508075025 54 195 1.7 5.2 0.00 0.00 0.00 32 1025.9
20260508074020 53 207 2.6 5.2 0.00 0.00 0.00 31 1025.9
20260508073015 53 200 2.6 7.0 0.00 0.00 0.00 32 1025.9
20260508072031 52 187 1.7 5.2 0.00 0.00 0.00 36 1025.7
20260508071025 51 192 1.7 6.1 0.00 0.00 0.00 38 1025.8
20260508070021 51 157 2.6 6.1 0.00 0.00 0.00 39 1025.9
20260508065017 51 197 2.6 5.2 0.00 0.00 0.00 40 1025.8
20260508064052 49 167 0.9 1.7 0.00 0.00 0.00 59 1025.7
20260508063027 47 170 0.0 1.7 0.00 0.00 0.00 64 1025.7
20260508062022 45 170 0.0 0.9 0.00 0.00 0.00 69 1025.8
20260508061017 44 165 0.0 0.9 0.00 0.00 0.00 69 1025.7
20260508060033 43 159 0.0 1.7 0.00 0.00 0.00 71 1025.7
20260508055028 43 178 0.0 0.9 0.00 0.00 0.00 72 1025.6
20260508054023 40 204 0.9 1.7 0.00 0.00 0.00 76 1025.6
20260508053038 41 0.0 0.0 0.00 0.00 0.00 74 1025.4
20260508052033 39 0.0 0.0 0.00 0.00 0.00 77 1025.5
20260508051049 36 195 0.0 0.9 0.00 0.00 0.00 81 1025.4
20260508050025 35 0.0 0.0 0.00 0.00 0.00 82 1025.2
20260508045020 36 0.0 0.0 0.00 0.00 0.00 80 1025.1
20260508044020 33 0.0 0.0 0.00 0.00 0.00 88 1025.1
20260508043031 31 202 0.0 0.9 0.00 0.00 0.00 89 1025.0
20260508042027 32 0.0 0.0 0.00 0.00 0.00 87 1024.8
20260508041023 33 0.0 0.0 0.00 0.00 0.00 86 1024.9
20260508040017 31 0.0 0.0 0.00 0.00 0.00 92 1024.9
20260508035034 29 0.0 0.0 0.00 0.00 0.00 97 1024.9
20260508034028 26 0.0 0.0 0.00 0.00 0.00 97 1024.8
20260508033044 26 0.0 0.0 0.00 0.00 0.00 97 1024.7
20260508032020 26 0.0 0.0 0.00 0.00 0.00 97 1024.8
20260508031016 25 0.0 0.0 0.00 0.00 0.00 97 1024.7
20260508030031 25 0.0 0.0 0.00 0.00 0.00 97 1024.7
20260508025027 25 0.0 0.0 0.00 0.00 0.00 96 1024.5
20260508024022 26 0.0 0.0 0.00 0.00 0.00 96 1024.4
20260508023018 26 0.0 0.0 0.00 0.00 0.00 96 1024.3
20260508022033 27 0.0 0.0 0.00 0.00 0.00 96 1024.2
20260508021029 26 0.0 0.0 0.00 0.00 0.00 95 1024.1
20260508020024 26 0.0 0.0 0.00 0.00 0.00 95 1024.1
20260508015020 27 0.0 0.0 0.00 0.00 0.00 95 1024.0
20260508014056 28 0.0 0.0 0.00 0.00 0.00 94 1023.9
20260508013032 29 210 0.0 0.9 0.00 0.00 0.00 94 1023.9
20260508012026 29 210 0.0 0.9 0.00 0.00 0.00 94 1023.7
20260508011041 28 212 0.0 1.7 0.00 0.00 0.00 95 1023.7
20260508010017 28 210 0.0 0.9 0.00 0.00 0.00 95 1023.5
20260508005033 28 0.0 0.0 0.00 0.00 0.00 94 1023.5
20260508004028 27 0.0 0.0 0.00 0.00 0.00 93 1023.5
20260508003024 28 0.0 0.0 0.00 0.00 0.00 92 1023.3
20260508002019 30 0.0 0.0 0.00 0.00 0.00 91 1023.2
20260508001114 30 210 0.0 0.9 0.00 0.00 0.00 92 1023.3
20260508000029 30 202 0.0 0.9 0.00 0.00 0.00 92 1023.2
20260507235025 30 0.0 0.0 0.00 0.00 0.00 92 1023.1
20260507234020 30 200 0.0 0.9 0.00 0.00 0.00 93 1023.2
20260507233036 30 0.0 0.0 0.00 0.00 0.00 93 1023.1
20260507232030 30 0.0 0.0 0.00 0.00 0.00 93 1023.0
20260507231026 30 0.0 0.0 0.00 0.00 0.00 92 1022.9
20260507230021 30 0.0 0.0 0.00 0.00 0.00 92 1022.8
20260507225017 30 194 0.0 0.9 0.00 0.00 0.00 92 1022.7
20260507224032 31 204 0.0 0.9 0.00 0.00 0.00 91 1022.6
20260507223048 31 187 0.0 0.9 0.00 0.00 0.00 91 1022.5
20260507222023 31 0.0 0.0 0.00 0.00 0.00 90 1022.5
20260507221019 32 0.0 0.0 0.00 0.00 0.00 89 1022.6
20260507220054 33 0.0 0.0 0.00 0.00 0.00 86 1022.4
20260507215030 34 190 0.0 0.9 0.00 0.00 0.00 86 1022.4
20260507214024 34 0.0 0.0 0.00 0.00 0.00 85 1022.3
20260507213020 35 0.0 0.0 0.00 0.00 0.00 84 1022.2
20260507212035 35 0.0 0.0 0.00 0.00 0.00 85 1022.0
20260507211031 35 0.0 0.0 0.00 0.00 0.00 86 1022.0
20260507210046 35 0.0 0.0 0.00 0.00 0.00 87 1021.8
20260507205021 35 0.0 0.0 0.00 0.00 0.00 86 1021.6
20260507204017 35 0.0 0.0 0.00 0.00 0.00 86 1021.5
20260507203032 35 0.0 0.0 0.00 0.00 0.00 84 1021.5
20260507202027 37 0.0 0.0 0.00 0.00 0.00 81 1021.4
20260507201043 37 0.0 0.0 0.00 0.00 0.00 80 1021.3
20260507200018 38 182 0.0 0.9 0.00 0.00 0.00 78 1021.1
20260507195054 39 0.0 0.0 0.00 0.00 0.00 74 1021.0
20260507194029 41 0.0 0.0 0.00 0.00 0.00 72 1021.0
20260507193024 42 175 0.0 0.9 0.00 0.00 0.00 69 1020.8
20260507192021 42 171 0.0 0.9 0.00 0.00 0.00 69 1020.5
20260507191035 43 172 0.0 0.9 0.00 0.00 0.00 67 1020.5
20260507190030 43 0.0 0.0 0.00 0.00 0.00 65 1020.2
20260507185027 44 132 0.9 2.6 0.00 0.00 0.00 63 1020.3
20260507184021 44 0.0 0.0 0.00 0.00 0.00 63 1020.1
20260507183037 45 147 0.9 1.7 0.00 0.00 0.00 60 1020.0
20260507182034 46 147 0.9 2.6 0.00 0.00 0.00 58 1019.9
20260507181027 46 156 0.9 2.6 0.00 0.00 0.00 57 1019.7
20260507180022 47 143 0.9 2.6 0.00 0.00 0.00 56 1019.6
20260507175018 47 120 1.7 6.1 0.00 0.00 0.00 56 1019.4
20260507174033 48 105 2.6 6.1 0.00 0.00 0.00 55 1019.4
20260507173028 48 75 2.6 7.0 0.00 0.00 0.00 56 1019.2
20260507172024 49 82 3.5 7.8 0.00 0.00 0.00 56 1019.1
20260507171024 50 107 2.6 5.2 0.00 0.00 0.00 53 1019.0
20260507170035 51 113 1.7 5.2 0.00 0.00 0.00 51 1018.9
20260507165030 51 92 2.6 6.1 0.00 0.00 0.00 50 1018.6
20260507164025 51 100 2.6 7.8 0.00 0.00 0.00 49 1018.5
20260507163020 51 96 4.3 11.3 0.00 0.00 0.00 48 1018.4
20260507162016 51 99 4.3 11.3 0.00 0.00 0.00 48 1018.3
20260507161032 52 99 3.5 11.3 0.00 0.00 0.00 49 1018.3
20260507160048 52 89 3.5 8.7 0.00 0.00 0.00 51 1018.2
20260507155023 52 83 5.2 13.0 0.00 0.00 0.00 51 1018.0
20260507154018 51 104 2.6 7.0 0.00 0.00 0.00 51 1017.8
20260507153034 53 95 3.5 9.6 0.00 0.00 0.00 50 1017.7
20260507152030 55 148 1.7 3.5 0.00 0.00 0.00 45 1017.6
20260507151045 56 164 1.7 7.0 0.00 0.00 0.00 43 1017.8
20260507150020 55 184 1.7 3.5 0.00 0.00 0.00 40 1017.7
20260507145035 56 175 0.9 1.7 0.00 0.00 0.00 40 1017.6
20260507144031 55 187 0.9 3.5 0.00 0.00 0.00 39 1017.6
20260507143026 56 174 1.7 6.1 0.00 0.00 0.00 40 1017.5
20260507142022 56 142 0.9 3.5 0.00 0.00 0.00 42 1017.3